www.pogodaiklimat.ru

Погода и климат >> Архив погоды >> Антарктида >> Esperanza Base


ПОГОДА в Esperanza Base

  • Прогноз погоды в Esperanza Base
  • Монитор погоды в Esperanza Base
  • Климат города

АРХИВ ПОГОДЫ в Esperanza Base

Время (UTC), дата Ветер
(напр.,м/с)
 
Видим.   Явления Облачность Т
(С)
Тd
(С)
f
(%)
Тe
(С)
Тes
(С)
Комфортность P
(гПа)
Po
(гПа)
Тmin
(С)
Tmax
(С)
R
(мм)
R24
(мм)
S
(см)
03 16.09 С 3 10 км 3/0
[Ci fib]
-10.6 -18.1 54 -16 -16 990.4 987.3
06 16.09 З 3 10 км 3/0
[Ci fib]
-5.0 -9.4 71 -10 -10 990.2 987.0
09 16.09 СЗ 3 10 км 3/3 210 м
[St Ci fib]
-7.0 -12.2 66 -12 -12 989.6 986.5
12 16.09 З 7 10 км 4/4 210 м
[St Ci fib]
-4.0 -8.1 73 -12 -12 990.7 987.6 -11.6 -3.9
15 16.09 ЮЗ 17 2000 м позёмок {метель} 4/4 210 м
[St Ci fib]
-4.2 -8.8 70 -15 -15 989.4 986.2
18 16.09 ЮЗ 15 3000 м позёмок {метель} 4/4 210 м
[St Ci fib]
-3.3 -7.5 73 -14 -14 993.4 990.4
21 16.09 С 5 1000 м слабый снег {метель} 10/10 210 м
[St]
-4.0 -5.9 87 -11 -11 995.2 992.2
00 17.09 Ю 3 10 км в посл. час снег {метель} 10/6 450 м
[St Cs]
-2.1 -4.6 83 -7 -7 994.0 991.0 -5.8 -1.5 0.0
03 17.09 З 16 10 км 10/5 450 м
[St Cs]
-2.1 -3.3 91 -13 -13 991.4 988.4
06 17.09 З 17 6000 м позёмок {метель} 6/6 450 м
[St]
-1.5 -2.6 92 -12 -12 989.6 986.6
09 17.09 З 18 3000 м сильный позёмок {метель} 5/5 360 м
[St]
-1.9 -2.7 94 -13 -13 986.5 983.4
12 17.09 Ю 9 10 км {метель} 5/5 450 м
[Sc]
-3.0 -6.8 75 -12 -12 987.5 984.5 -3.5 -1.5 0.0
15 17.09 Ю 9 10 км 6/6 450 м
[Sc]
-11.4 -16.0 69 -22 -21 991.0 987.8
18 17.09 Ю 11 10 км 9/9 540 м
[Sc]
-12.1 -19.0 56 -24 -24 990.9 987.8
21 17.09 Ю 12 10 км 9/9 540 м
[Sc]
-13.0 -21.3 50 -25 -25 992.0 988.9
00 18.09 Ю 12 10 км 8/5 540 м
[Sc Ac trans]
-13.2 -19.9 57 -25 -25 992.5 989.4 -15.4 -3.0
03 18.09 Ю 8 10 км 9/9 570 м
[Sc]
-14.1 -19.0 66 -25 -25 993.7 990.6
06 18.09 СВ 2 10 км 10/10 540 м
[St]
-14.6 -18.2 74 -20 -20 994.7 991.6
09 18.09 ЮВ 5 10 км 10/10 540 м
[St]
-15.3 -17.7 82 -24 -24 995.4 992.2
12 18.09 ЮВ 6 400 м слабый снег {туман} 10/10 120 м
[St]
-15.1 -16.9 86 -25 -25 995.4 992.2 -16.2 -13.2 0.2 2
15 18.09 ЮВ 12 <100 м слабый снег {туман} ?/? -15.3 -17.1 86 -28 -28 995.2 992.0
18 18.09 Ю 11 <100 м слабый снег {метель} ?/? -16.0 -20.7 67 -29 -29 996.9 993.7 0.2
21 18.09 Ю 10 1000 м слабый снег {метель} 10/10 90 м
[St]
-17.2 -26.6 44 -30 -30 998.7 995.4
00 19.09 Ю 6 4000 м слабый снег {метель} 10/10 270 м
[St]
-16.8 -22.7 60 -27 -27 1001.8 998.6 -18.7 -15.1 0.0
03 19.09 Ю 6 10 км в посл. час снег 3/3 540 м
[St]
-16.2 -21.9 61 -26 -26 1004.9 1001.7
06 19.09 ЮЗ 2 10 км {снег} 1/0
[Ci fib]
-17.4 -24.6 53 -22 -22 1007.2 1004.0 0.0
09 19.09 Ю 1 10 км 5/5 540 м
[St]
-16.6 -21.5 66 -17 -17 1008.6 1005.4
12 19.09 З 8 10 км {снег} 5/5 450 м
[St]
-9.2 -13.1 73 -19 -18 1009.5 1006.2 -19.8 -9.2 0.0 <0.5
15 19.09 З 8 10 км {метель} 3/3 300 м
[St]
-5.3 -10.3 68 -14 -14 1010.5 1007.3
18 19.09 З 13 5000 м позёмок {метель} 3/3 300 м
[St Ci]
-6.0 -8.6 82 -17 -17 1009.9 1006.6
21 19.09 ЮЗ 8 10 км {метель} 3/3 300 м
[St Ci]
-5.0 -9.4 71 -14 -14 1009.6 1006.4
00 20.09 ЮЗ 12 10 км 3/3 540 м
[St]
-6.5 -9.3 80 -17 -17 1009.7 1006.6 -10.8 -5.0
03 20.09 З 14 1500 м сильный позёмок {метель} 4/4 450 м
[St]
-6.7 -8.3 88 -18 -18 1010.0 1006.9
06 20.09 З 13 5000 м позёмок {метель} ясно -6.6 -8.6 86 -18 -18 1008.5 1005.4
09 20.09 ЮЗ 5 10 км 3/3 450 м
[St]
-5.6 -8.5 80 -13 -13 1007.8 1004.6
12 20.09 нст 2 20 км {метель} 3/3 300 м
[St]
-5.0 -9.4 71 -8 -7 1008.6 1005.4 -7.2 -4.9
15 20.09 Ю 2 20 км 5/3 300 м
[St Ci]
-4.8 -9.2 71 -9 -6 1008.8 1005.7
18 20.09 ЮЗ 2 20 км 5/3 300 м
[St Ci]
-2.7 -7.1 72 -7 -4 1009.2 1006.1
21 20.09 нст 1 20 км 5/3 300 м
[St Ci]
-5.3 -10.3 68 -7 -7 1010.1 1007.0
00 21.09 Ю 2 10 км 6/3 540 м
[St Cs]
-9.4 -11.4 85 -14 -14 1011.2 1008.1 -11.8 -1.8
03 21.09 Ю 5 10 км 10/0
[Cs]
-6.7 -9.1 83 -14 -14 1011.2 1008.1
06 21.09 ЮВ 4 10 км 10/0
[Cs]
-7.5 -9.6 85 -14 -14 1011.0 1007.8
09 21.09 З 1 10 км 8/0
[Cs]
-6.8 -8.8 86 -9 -9 1010.5 1007.4
12 21.09 С 3 10 км 10/0
[Cs]
-5.8 -9.6 74 -11 -10 1011.0 1007.8 -11.2 -5.6
15 21.09 нст 2 10 км 10/0
[Cs]
-4.7 -9.4 70 -8 -4 1010.4 1007.3
18 21.09 ЮВ 2 10 км 10/0
[Cs]
-4.8 -8.7 74 -9 -6 1009.5 1006.4
21 21.09 Ю 2 10 км 8/0
[Cs]
-6.4 -9.5 79 -11 -10 1009.1 1006.0
00 22.09 В 1 10 км 10/0
[Cs]
-8.6 -10.9 83 -11 -11 1008.1 1005.0 -10.7 -4.0
03 22.09 ЮВ 1 10 км 10/0
[Cs]
-7.7 -10.7 79 -8 -8 1006.8 1003.7
06 22.09 Ю 1 10 км 9/0
[Cs]
-7.9 -13.4 65 -10 -10 1005.8 1002.6
09 22.09 Ю 1 10 км 10/0
[Cs]
-7.6 -12.0 71 -10 -10 1005.1 1002.0
12 22.09 В 4 10 км 10/3 300 м
[Sc Cs]
-5.0 -9.4 71 -11 -10 1005.5 1002.4 -10.2 -4.9
15 22.09 нст 1 10 км 10/3 300 м
[Sc Cs]
-0.4 -5.5 68 -2 +1 1005.0 1001.8
18 22.09 нст 1 10 км 5/0
[Ci]
+0.5 -3.9 72 -1 +3 1003.8 1000.6
21 22.09 В 3 10 км 5/0
[Ci]
-3.6 -7.2 76 -8 -8 1002.6 999.4

 

Местоположение метеостанции Esperanza Base (Антарктида): широта -63.40 долгота -56.98 высота над уровнем моря 24 м.

В архиве по умолчанию представлена погода в Esperanza Base за последнюю неделю. Архивные данные за месяц целиком и за предыдущие месяцы, начиная с января 2011 года, Вы можете получить, выбрав интересующий диапазон дат из раскрывающегося списка и нажав кнопку "Ввод!".


*Определитесь, кто Вы:
робот инопланетянин человек

Внимание! Время в таблицах - всемирное. Для получения местного времени необходимо прибавить поправку, которая в Esperanza Base равна 0 ч.

Смотрите также архив погоды в соседних городах и на ближайших метеорологических станциях:

Погода в Bernardo o`Higgins (Антарктида) (47 км)
Погода в Marambio Base (Антарктида) (93 км)
Погода в Carlini Base (Антарктида) (155 км)
Погода в King Sejong (Антарктида) (160 км)
Погода в Dinamet-Uruguay (Антарктида) (165 км)
Погода в Bellingshausen (Антарктида) (166 км)
Погода в Great Wall (Антарктида) (166 км)
Погода в Captain Arturo Prat Base (Антарктида) (169 км)
Погода в Frei Chi-Base (Антарктида) (170 км)
Погода в Juan Carlos Island (Антарктида) (191 км)

Пояснения к столбцам:

Ветер - указаны скорость ветра в м/с - средняя за 10 мин, порывы в срок и между сроками (в фигурных скобках) и направление, откуда дует ветер: С - северный, СВ - северо-восточный, В - восточный, ЮВ - юго-восточный, Ю - южный, ЮЗ - юго-западный, З - западный, СЗ - северо-западный.
Видимость - горизонтальная дальность видимости в метрах или километрах. При видимости от 1 до 10 км при отсутствии осадков обычно наблюдается дымка, при ухудшении видимости до 1 км и менее - туман. В сухую погоду видимость может ухудшаться дымом, пылью или мглою.
Явления - указаны атмосферные явления, наблюдавшиеся в срок или в последний час перед сроком; фигурными скобками обозначены явления, наблюдавшиеся между сроками (за 1-3 часа до срока); квадратными скобками обозначены град или гололедные отложения с указанием их диаметра в мм.
Облачность - указаны через наклонную черту общая и нижняя облачность в баллах и высота нижней границы облаков в метрах; квадратными скобками обозначены формы облаков: Ci - перистые, Cs - перисто-слоистые, Cc - перисто-кучевые, Ac - высококучевые, As - высокослоистые, Sc - слоисто-кучевые, Ns - слоисто-дождевые, Cu - кучевые, Cb - кучево-дождевые. Подробнее классификацию облаков см. в Атласе облаков (PDF).
T - Температура воздуха - температура, измеренная на высоте 2 м над землей.
Td - Температура точки росы - температура, при понижении до которой содержащийся в воздухе водяной пар достигнет насыщения.
f - Относительная влажность воздуха - влажноcть воздуха, измеренная на высоте 2 м над землей.
Te - Эффективная температура - температура, которую ощущает одетый по сезону человек в тени. Характеристика душности погоды. При расчете учитывается влияние влажности воздуха и скорости ветра на теплоощущения человека.
Tes - Эффективная температура на солнце - температура, которую ощущает человек, с поправкой на солнечный нагрев. Характеристика знойности погоды. Зависит от высоты солнца над горизонтом, облачности и скорости ветра. Ночью, в пасмурную погоду, а также при ветре 12 м/с и более поправка равна нулю.
P - Атмосферное давление - приведенное к уровню моря атмосферное давление.
Po - Атмосферное давление - измеренное на уровне метеостанции атмосферное давление.
Tmin - Минимальная температура - минимум температуры воздуха на высоте 2 м над землей.
Tmax - Максимальная температура - максимум температуры воздуха на высоте 2 м над землей.
R - Количество осадков - Количество выпавших осадков за период времени, мм. При наведении курсора мыши на число - период времени, за который выпало указанное количество осадков.
R24 - Количество осадков - Количество выпавших осадков за 24 часа, мм.
S - Снежный покров - Высота снежного покрова, см. При наведении курсора мыши на число - состояние снежного покрова и степень покрытия местности в баллах.